Voltar ao catálogo

FREGAT R/B

AtivoHEO
NORAD 58585·ROCKET BODY·🇷🇺 Russia

Lançado Dec 16, 2023 de Baikonur Cosmodrome

Loading…

Próximas Passagens (próximas 24 horas)

TLE

ObsoletoSource: Space-Track

Época: Aug 16, 2026, 01:06 UTC

1 58585U 23198B   26228.04642761  .00000126  00000-0  00000-0 0  9993
2 58585  63.2416 147.2345 6971564 266.0380  18.7487  1.99076646 19399

Acompanhe FREGAT R/B em tempo real com AllMySat

Download on the App Store